TimeCDT,TemperatureF,Dew PointF,Humidity,Sea Level PressureIn,VisibilityMPH,Wind Direction,Wind SpeedMPH,Gust SpeedMPH,PrecipitationIn,Events,Conditions,WindDirDegrees,DateUTC
12:56 AM,31.1,31.1,100,30.30,-9999.0,Calm,Calm,-,N/A,,Clear,0,2012-10-11 05:56:00
1:56 AM,32.0,32.0,100,30.32,-9999.0,Calm,Calm,-,N/A,,Clear,0,2012-10-11 06:56:00
2:56 AM,32.0,32.0,100,30.32,-9999.0,Calm,Calm,-,N/A,,Clear,0,2012-10-11 07:56:00
3:25 AM,30.2,30.2,100,30.29,-9999.0,Calm,Calm,-,N/A,,Mostly Cloudy,0,2012-10-11 08:25:00
3:56 AM,29.1,29.1,100,30.32,-9999.0,Calm,Calm,-,N/A,,Clear,0,2012-10-11 08:56:00
4:56 AM,29.1,29.1,100,30.33,-9999.0,Calm,Calm,-,N/A,,Clear,0,2012-10-11 09:56:00
5:56 AM,29.1,29.1,100,30.33,-9999.0,Calm,Calm,-,N/A,,Clear,0,2012-10-11 10:56:00
7:56 AM,37.9,37.9,100,30.34,-9999.0,Calm,Calm,-,N/A,,Clear,0,2012-10-11 12:56:00
8:56 AM,45.9,38.8,76,30.35,-9999.0,Calm,Calm,-,N/A,,Clear,0,2012-10-11 13:56:00
9:56 AM,52.0,38.8,61,30.34,-9999.0,ESE,6.9,-,N/A,,Clear,110,2012-10-11 14:56:00
10:56 AM,56.8,39.9,53,30.32,-9999.0,Variable,3.5,-,N/A,,Clear,0,2012-10-11 15:56:00
11:56 AM,61.0,36.9,41,30.30,-9999.0,SE,4.6,-,N/A,,Clear,140,2012-10-11 16:56:00
12:56 PM,63.9,32.9,31,30.28,-9999.0,WSW,6.9,-,N/A,,Clear,240,2012-10-11 17:56:00
1:56 PM,66.9,32.9,28,30.26,-9999.0,WNW,5.8,-,N/A,,Clear,290,2012-10-11 18:56:00
2:56 PM,68.0,34.0,28,30.26,-9999.0,West,9.2,-,N/A,,Clear,260,2012-10-11 19:56:00
3:56 PM,65.8,36.0,33,30.25,-9999.0,Calm,Calm,-,N/A,,Clear,0,2012-10-11 20:56:00
4:56 PM,64.9,36.0,34,30.25,-9999.0,WSW,4.6,-,N/A,,Mostly Cloudy,250,2012-10-11 21:56:00
6:56 PM,59.9,38.8,46,30.26,-9999.0,Calm,Calm,-,N/A,,Overcast,0,2012-10-11 23:56:00
8:56 PM,45.9,41.9,86,30.28,-9999.0,Calm,Calm,-,N/A,,Clear,0,2012-10-12 01:56:00
9:56 PM,46.9,43.0,86,30.28,-9999.0,Calm,Calm,-,N/A,,Mostly Cloudy,0,2012-10-12 02:56:00
11:56 PM,47.8,46.9,97,30.27,-9999.0,Calm,Calm,-,N/A,,Mostly Cloudy,0,2012-10-12 04:56:00